Location: Newark
(45.8667°N, 9.7333°E)
Time: 01:17:02
(UTC+00:00)

Transit 4A - Pass Details

Date: 25 January 2020
Orbit: 872 x 973 km, 66.8° (Epoch: 19 February)

Event Time Altitude Azimuth Distance (km) Brightness Sun altitude
Rises 15:03:43 0° 323° (NW) 3,471 10.9 9.6°
Reaches altitude 10° 15:06:15 10° 319° (NW) 2,528 10.2 9.2°
Maximum altitude 15:11:54 53° 244° (WSW) 1,063 9.1 8.5°
Drops below altitude 10° 15:17:34 10° 169° (S) 2,538 10.6 7.7°
Sets 15:20:06 0° 165° (SSE) 3,484 11.2 7.4°
